Find Starlink 33849

NORAD ID: 63654 Int'l Des: 2025-083 Owner: SPXS Country: US Constellation: starlink operational
LEOCIRCULAR

Current View

Loading 3D Globe...

About Starlink 33849

Starlink 33849 (NORAD 63654) is a starlink constellation satellite (v2 mini) launched Apr 25, 2025 by SPXS of US. It operates in LEO, CIRCULAR orbit with a mass of 575.00 kg.

About Starlink 33849

Description loading...

Upcoming Passes

Passes for default location (London). Set your location on the main map for personalized predictions.

Altitude History

Loading altitude history...

Two-Line Element Set

1 63654U 25083W 26170.29256339 .00007115 00000-0 26781-3 0 9998
2 63654 42.9999 151.5800 0001497 274.4372 85.6309 15.27580619 65600
Epoch: Jun 19, 2026 • Age: 7 hours

Current Status

Altitude 495.0 km
Velocity 7.62 km/s
Sub-Earth Point -42.17°S, 79.37°W
Launch Date Apr 25, 2025
Age 1.1 years
Type internet

Technical Details

Classification Payload
Mass 575.00 kg
Dry Mass 530.00 kg
Total Mass 575.00 kg
Length 0.30 m
Diameter 4.10 m
Span 29.00 m
Shape Box + pan
Manufacturer SPXS
Bus Type Starlink V2MO
Phase Status In Orbit
Owner/State SPXS/US

Most Searched